User: anonymous   Login
Location: Oberwangen
(47.4286°N, 8.9679°E)
Time: 06:55:12
(UTC+00:00)
Language:

LEMUR 2 WINGO - Orbit

View from above orbital plane
View from above orbital plane
View from above satellite
View from above satellite

Ground track
Ground track

The orbit data is extracted from the following two-line orbital elements,

1 41874U 16062F   22028.49009111  .00008879  00000-0  30453-3 0  9998
2 41874  51.6508 318.2408 0011141  82.6152 277.6094 15.30875977288352
Epoch (UTC): 28 January 2022 11:45:43
Eccentricity: 0.0011141
inclination: 51.6508°
perigee height: 465 km
apogee height: 481 km
right ascension of ascending node: 318.2408°
argument of perigee: 82.6152°
revolutions per day: 15.30875977
mean anomaly at epoch: 277.6094°
orbit number at epoch: 28835

The dashed part of the orbit path shows where the satellite is in the earth's shadow,  

DLR